Погода в Пронькине

Россия / Еврейская автономная область     48°36′55″N   132°59′07″E
темп.,
°C
ветер,
м/с
пор.,
м/с
влажн.,
%
обл.,
%
осадки,
мм/ч
давл.,
гПа
погр.,
м
24 июля, сб
сб2401:00+25юз226885 0.0 100611
04:00+23юз22764 0.1 100720
07:00+24зюз11804 0.0 100730
10:00+30юз24615 0.0 1007535
13:00+34юз364361 0.0 10061773
16:00+36юз36343 0.0 10052687
19:00+32з24530 0.0 1004107
22:00+28ююв12535 0.0 100512
25 июля, вс
вс2501:00+24ююв236175 0.0 100552
04:00+23з1159100 0.0 100512
07:00+22св117899 0.3 100522
10:00+28ююз1361100 0.3 1005474
13:00+30зсз3458100 0.0 1005815
16:00+31юз365145 0.0 10041049
19:00+28зсз2570100 0.0 1003187
22:00+24ююв2278100 0.0 100515
26 июля, пн
пн2601:00+25юз1175100 0.1 100412
04:00+24сз1174100 0.1 100413
07:00+23ссв238670 0.0 100495
10:00+28св2268100 0.0 1004529
13:00+31ю2353100 0.0 10031227
16:00+33вюв1448100 0.0 10021557
19:00+30ссв346921 0.0 1001237
22:00+24всв2290100 0.0 100228
27 июля, вт
вт2701:00+23ссз2395100 0.3 100386
04:00+22ссз119694 0.3 100318
07:00+22всв1194100 0.0 100356
10:00+26зюз1274100 0.0 1004484
13:00+31зюз355689 0.0 10031274
16:00+31зсз4656100 0.0 10021063
19:00+28сз3567100 0.0 1001452
22:00+23ссз2285100 0.0 100233
28 июля, ср
ср2801:00+22сз119070 0.0 100211
04:00+21сз119211 0.0 100214
07:00+22сз118755 0.0 100267
10:00+28юз016341 0.0 1002738
13:00+30з2353100 0.0 10001392
16:00+31зсз2351100 0.0 9991275
19:00+29з3560100 0.0 998334
22:00+26сз2263100 0.0 99827